星链-34592 (STARLINK-34592)

导读

STARLINK-34592是美国于2025年7月2日发射的星链卫星,隶属于SpaceX公司的星链星座项目。星链项目旨在构建全球卫星互联网星座,为全球提供高速低延迟互联网服务。该卫星入轨后,将与星链其他卫星组网,拓展星座覆盖范围,提升系统服务能力,推进星链全球互联目标的实现。

Basic Information
目录编号:
64746
目录名称:
STARLINK-34592
国际标识:
2025-144Y
轨道中心:
EARTH
卫星名称:
星链-34592
卫星全名:
星链-34592 (STARLINK-34592)
卫星状态:
在轨 (已飞行430 天)
发射日期:
2025-07-02 UTC
国别 :
美国 (US)
星等 :
--
Orbit Information
数据来源 国际轨道数据
星历时间: 2026-09-04T08:36:02+0800
1天前
查看轨道信息
半长轴: 6840.808km
偏心率: 0.0000919
轨道倾角: 53.159°
近地点辐角 89.691°
升交点赤经 58.645°
平近点角 270.420°
近地点: 462.042km
远地点: 463.3km
周期: 93.847分钟
每日圈数: 15.344111
Detailed Information
固有亮度:
5
最大亮度:
2.5
卫星平台:
Starlink V1.0
覆盖范围:
全球
运营商:
太空探索技术公司
运营商所在国:
美国
制造商(研发单位):
太空探索技术公司
制造商所在国:
美国
使用方式:
暂无
Satellite Introduction
Starlink 计划是 SpaceX 推出的全球卫星互联网项目,通过发射低轨道卫星,为全球尤其是偏远地区提供高速、低延迟的互联网服务。自 2019 年起,Starlink 已部署数千颗卫星,旨在缩小全球数字鸿沟,推动互联网普及。该项目还为军事、航空等行业提供通信支持,带来广泛经济效益。
2D Orbit Map
3D Orbit Map
Orbit Altitude Analysis Chart
Orbit Inclination Analysis Chart
Orbit Comprehensive Analysis Chart
View Comprehensive Chart
Conjunction Data List
Event ID Objects TCA Miss Dist (km) Collision Risk Probability Collision Risk Index (CRI) Action
CDM_260907-005906-474606-478121
2026-09-07T
00:59:56+0000
0.130 km
中距离
9.106622E-4 高风险 0.94
CDM_260907-040506-474606-640421
2026-09-07T
04:05:08+0000
0.353 km
远距离
2.291057E-4 高风险 0.82
CDM_260905-182305-254006-474622
2026-09-05T
18:23:24+0000
0.499 km
远距离
6.592204E-5 中风险 0.71
CDM_260907-184806-474606-851021
2026-09-07T
18:48:51+0000
0.692 km
远距离
4.031654E-5 中风险 0.67
CDM_260907-023306-474606-478121
2026-09-07T
02:33:43+0000
1.004 km
极远距离
1.607724E-5 中风险 0.59
CDM_260906-060805-505306-474623
EOSSAT-1 (55053)
2026-09-06T
06:08:30+0000
1.121 km
极远距离
1.560893E-5 中风险 0.59
CDM_260907-124006-474606-640421
2026-09-07T
12:40:59+0000
0.938 km
远距离
1.531445E-5 中风险 0.59
CDM_260906-232606-474606-478121
2026-09-06T
23:26:09+0000
1.125 km
极远距离
1.083116E-5 中风险 0.56
CDM_260905-204405-254006-474622
2026-09-05T
20:44:06+0000
0.895 km
远距离
1.049435E-5 中风险 0.55
CDM_260907-141406-474606-640421
2026-09-07T
14:14:46+0000
1.250 km
极远距离
5.711437E-6 低风险 0.5